This demonstration page uses our WeatherBlox Daily Observations layout. Learn more.

Hourly Observations for April 3, 2019

Temp ( °F °C ) Dew Point ( °F °C ) Humidity (%) Winds ( mph kmh ) Pressure ( in mb ) Visibility ( mi km ) Precip ( " mm )
12:15 am 00:15 Clear 42 5.7 35 1.5 75 75 S 7 11 30.11 1020 10 16.0934 0 0
12:35 am 00:35 Clear 41 4.9 34 1.2 77 77 S 5 7 30.12 1020 10 16.0934 0 0
12:55 am 00:55 Clear 40 4.5 34 1 78 78 S 5 7 30.12 1020 10 16.0934 0 0
1:15 am 01:15 Clear 40 4.3 34 0.9 79 79 Calm 30.11 1020 10 16.0934 0 0
1:35 am 01:35 Partly Cloudy 37 2.7 33 0.5 86 86 ESE 5 7 30.14 1021 10 16.0934 0 0
1:55 am 01:55 Cloudy 40 4.5 35 1.5 81 81 SSE 3 6 30.12 1020 10 16.0934 0 0
2:15 am 02:15 Cloudy 40 4.5 35 1.6 82 82 SE 3 6 30.12 1020 10 16.0934 0 0
2:35 am 02:35 Mostly Cloudy 40 4.5 34 1.2 79 79 SSE 3 6 30.11 1020 10 16.0934 0 0
2:55 am 02:55 Partly Cloudy 40 4.3 33 0.8 78 78 Calm 30.11 1020 10 16.0934 0 0
3:15 am 03:15 Mostly Cloudy 39 3.8 34 1 82 82 SSE 3 6 30.11 1020 10 16.0934 0 0
3:35 am 03:35 Cloudy 40 4.7 35 1.6 81 81 SSE 3 6 30.1 1019 10 16.0934 0 0
3:55 am 03:55 Mostly Cloudy 40 4.6 35 1.7 82 82 SE 3 6 30.09 1019 10 16.0934 0 0
4:15 am 04:15 Mostly Cloudy 40 4.5 37 2.5 87 87 ESE 6 9 30.09 1019 10 16.0934 0 0
4:35 am 04:35 Cloudy 40 4.5 36 2.3 86 86 ESE 6 9 30.09 1019 10 16.0934 0 0
4:55 am 04:55 Cloudy 40 4.5 37 2.6 88 88 ESE 7 11 30.07 1018 10 16.0934 0 0
5:15 am 05:15 Mostly Cloudy 41 4.8 37 2.5 85 85 ESE 6 9 30.07 1018 10 16.0934 0 0
5:35 am 05:35 Mostly Cloudy 40 4.7 36 2.3 85 85 ESE 7 11 30.07 1018 10 16.0934 0 0
5:55 am 05:55 Mostly Cloudy 40 4.3 35 1.8 84 84 E 7 11 30.07 1018 10 16.0934 0 0
6:15 am 06:15 Partly Cloudy 40 4.3 35 1.6 83 83 E 7 11 30.07 1018 10 16.0934 0 0
6:35 am 06:35 Partly Cloudy 41 5 35 1.6 79 79 E 9 15 30.06 1018 10 16.0934 0 0
6:55 am 06:55 Mostly Cloudy 41 4.8 35 1.5 79 79 E 9 15 30.06 1018 10 16.0934 0 0
7:15 am 07:15 Cloudy 40 4.6 35 1.4 80 80 E 13 20 30.05 1018 7 11.26538 0 0
7:35 am 07:35 Mostly Cloudy with Haze 40 4.6 35 1.6 81 81 E 13 20 30.05 1018 4 6.43736 0 0
7:55 am 07:55 Cloudy with Haze 41 4.9 35 1.9 81 81 ESE 10 17 30.05 1018 2.5 4.02335 0 0
8:15 am 08:15 Cloudy with Haze 41 5.2 36 2.1 81 81 E 13 20 30.05 1017 3 4.82802 0 0
8:35 am 08:35 Cloudy 42 5.6 36 2.3 80 80 ESE 15 24 30.04 1017 7 11.26538 0 0
8:55 am 08:55 Cloudy 43 6.1 37 2.5 78 78 SE 12 19 30.05 1018 10 16.0934 0 0
9:15 am 09:15 Cloudy 44 6.5 37 2.7 77 77 ESE 12 19 30.03 1017 10 16.0934 0 0
9:35 am 09:35 Cloudy 44 6.5 37 2.7 77 77 ESE 12 19 30.03 1017 10 16.0934 0 0
9:55 am 09:55 Cloudy 45 7 38 3.1 76 76 ESE 12 19 30.02 1017 10 16.0934 0 0
10:15 am 10:15 Cloudy 46 7.8 38 3.6 75 75 ESE 15 24 30.01 1016 10 16.0934 0 0
10:35 am 10:35 Mostly Cloudy 47 8.5 39 3.8 73 73 ESE 16 26 30 1016 10 16.0934 0 0
10:55 am 10:55 Sunny 49 9.5 39 3.9 68 68 SE 17 28 29.99 1015 10 16.0934 0 0
11:15 am 11:15 Partly Cloudy 49 9.7 39 4.1 68 68 SE 15 24 29.99 1015 10 16.0934 0 0
11:35 am 11:35 Mostly Cloudy 51 10.6 40 4.4 66 66 SE 20 31 29.97 1015 10 16.0934 0 0
11:55 am 11:55 Cloudy 51 10.3 40 4.2 66 66 SE 15 24 29.98 1015 10 16.0934 0 0
12:15 pm 12:15 Cloudy 50 10.2 40 4.5 68 68 SE 17 28 29.98 1015 10 16.0934 0 0
12:35 pm 12:35 Cloudy with Light Rain 49 9.6 42 5.8 77 77 SE 13 20 29.98 1015 7 11.26538 0 0
12:55 pm 12:55 Partly Cloudy 52 11 43 6 72 72 SE 13 20 29.95 1014 10 16.0934 0 0
1:15 pm 13:15 Sunny 54 12.1 42 5.8 66 66 SE 12 19 29.93 1014 10 16.0934 0 0
1:35 pm 13:35 Sunny 55 12.8 42 5.5 61 61 SE 14 22 29.91 1013 10 16.0934 0 0
1:55 pm 13:55 Sunny 55 13 42 5.7 61 61 SE 12 19 29.91 1013 10 16.0934 0 0
2:15 pm 14:15 Sunny 57 13.8 43 5.9 59 59 SE 10 17 29.89 1012 10 16.0934 0 0
2:35 pm 14:35 Mostly Cloudy 56 13.4 43 5.9 61 61 ESE 16 26 29.88 1012 10 16.0934 0 0
2:55 pm 14:55 Partly Cloudy 56 13.5 43 5.9 60 60 SE 12 19 29.88 1012 10 16.0934 0 0
3:15 pm 15:15 Mostly Cloudy 56 13.1 43 6 62 62 SSE 8 13 29.89 1012 10 16.0934 0 0
3:35 pm 15:35 Partly Cloudy 56 13.5 42 5.8 60 60 S 8 13 29.89 1012 10 16.0934 0 0
3:55 pm 15:55 Partly Cloudy 56 13.6 42 5.8 60 60 SSE 9 15 29.89 1012 10 16.0934 0 0
4:15 pm 16:15 Cloudy 55 13 43 6.1 63 63 SE 13 20 29.9 1012 10 16.0934 0 0
4:35 pm 16:35 Cloudy 54 12.2 44 6.7 69 69 ESE 14 22 29.91 1013 10 16.0934 0 0
4:55 pm 16:55 Cloudy 54 12.1 45 7 71 71 ESE 10 17 29.91 1013 10 16.0934 0 0
5:15 pm 17:15 Cloudy 53 11.6 45 7 74 74 E 12 19 29.91 1013 10 16.0934 0 0
5:35 pm 17:35 Cloudy 53 11.5 44 6.8 73 73 E 12 19 29.91 1013 10 16.0934 0 0
5:55 pm 17:55 Cloudy 53 11.4 44 6.7 73 73 E 12 19 29.91 1013 10 16.0934 0 0
6:15 pm 18:15 Cloudy 52 11.3 44 6.6 73 73 E 9 15 29.91 1013 10 16.0934 0 0
6:35 pm 18:35 Cloudy 52 11.3 44 6.8 74 74 E 12 19 29.91 1013 10 16.0934 0 0
6:55 pm 18:55 Cloudy 52 11.1 44 6.6 74 74 E 16 26 29.91 1013 10 16.0934 0 0
7:15 pm 19:15 Cloudy 50 10 45 7 82 82 E 16 26 29.93 1014 10 16.0934 0 0
7:35 pm 19:35 Cloudy 49 9.3 45 7 86 86 ENE 16 26 29.95 1014 10 16.0934 0 0
7:55 pm 19:55 Cloudy 48 8.9 45 7.1 89 89 ENE 15 24 29.95 1014 10 16.0934 0 0
8:15 pm 20:15 Cloudy 47 8.5 45 7 90 90 ENE 16 26 29.97 1015 10 16.0934 0 0
8:35 pm 20:35 Cloudy 47 8.2 45 7.1 93 93 ENE 14 22 29.97 1015 10 16.0934 0 0
8:55 pm 20:55 Cloudy 46 8 45 7.1 94 94 ENE 16 26 29.97 1015 10 16.0934 0 0
9:15 pm 21:15 Cloudy 46 7.8 45 7.1 95 95 NE 14 22 29.99 1016 10 16.0934 0 0
9:35 pm 21:35 Cloudy 46 7.5 45 7 97 97 NE 14 22 30 1016 10 16.0934 0 0
9:55 pm 21:55 Cloudy 45 7.2 44 6.8 97 97 NE 14 22 30.02 1017 7 11.26538 0 0
10:15 pm 22:15 Cloudy 44 6.7 43 6.3 97 97 NE 14 22 30.02 1017 7 11.26538 0 0
10:35 pm 22:35 Cloudy 44 6.5 43 6.1 97 97 NE 16 26 30.03 1017 7 11.26538 0 0
10:55 pm 22:55 Cloudy 43 6.3 43 6 98 98 NE 15 24 30.04 1017 7 11.26538 0 0
11:15 pm 23:15 Cloudy 43 6 42 5.6 97 97 NNE 13 20 30.04 1017 7 11.26538 0 0
11:35 pm 23:35 Cloudy 42 5.8 42 5.5 98 98 NE 14 22 30.04 1017 7 11.26538 0 0
11:55 pm 23:55 Cloudy 42 5.8 42 5.5 98 98 NE 15 24 30.03 1017 7 11.26538 0 0

Powered by AerisWeather